Weather History for KDPA - June, 2013

Change the Weather History Date:

Monday, June 24, 2013

  Actual Average Record
Temperature  
Mean Temperature 75 °F 72 °F  
Max Temperature 84 °F 84 °F 95 °F (2005)
Min Temperature 66 °F 61 °F 50 °F (2006)
Degree Days  
Heating Degree Days 0 0  
Month to date heating degree days 54 34  
Since 1 June heating degree days 54 34  
Since 1 July heating degree days 6583 6313  
Cooling Degree Days 10 8  
Month to date cooling degree days 94 128  
Year to date cooling degree days 171 174  
Since 1 June cooling degree days 94 128  
Growing Degree Days 25 (Base 50)    
Moisture  
Dew Point 67 °F    
Average Humidity 85    
Maximum Humidity 97    
Minimum Humidity 60    
Precipitation  
Precipitation 0.25 in 0.09 in 0.91 in (2000)
Month to date precipitation 2.70 3.35  
Year to date precipitation 19.99 16.37  
Sea Level Pressure  
Sea Level Pressure 29.98 in    
Wind  
Wind Speed 8 mph (SSW)    
Max Wind Speed 36 mph    
Max Gust Speed 47 mph    
Visibility 8 miles    
Events Rain    
T = Trace of Precipitation, MM = Missing Value Source: NWS Daily Summary

Daily Weather History Graph

Daily Weather History Graph

Search for Another Location

Airport or City:

Trip Planner

Search our weather history database for the weather conditions in past years. The results will help you decide how hot, cold, wet, or windy it might be!

Date:

Astronomy

Jun. 24, 2013 Rise Set
Actual Time 5:18 AM CDT 8:32 PM CDT
Civil Twilight 4:44 AM CDT 9:06 PM CDT
Nautical Twilight 4:00 AM CDT 9:50 PM CDT
Astronomical Twilight 3:06 AM CDT 10:44 PM CDT
Moon 9:32 PM CDT (6/24) 6:47 AM CDT (6/24)
Length of Visible Light 16h 22m
Length of Day
15h 13m
Full, 98% of the Moon is Illuminated
Jun 24
Full
Jun 29
Last Quarter
Jul 8
New
Jul 15
First Quarter
Jul 22
Full

Hourly Weather History & Observations

Time (CDT) Temp. Heat Index Dew Point Humidity Pressure Visibility Wind Dir Wind Speed Gust Speed Precip Events Conditions
12:52 AM 72.0 °F - 70.0 °F 93% 29.99 in 8.0 mi South 4.6 mph - N/A   Clear
1:52 AM 70.0 °F - 69.1 °F 97% 29.97 in 6.0 mi South 5.8 mph - N/A   Clear
2:52 AM 70.0 °F - 69.1 °F 97% 29.98 in 4.0 mi South 5.8 mph - N/A   Clear
3:52 AM 70.0 °F - 69.1 °F 97% 29.98 in 3.0 mi South 5.8 mph - N/A   Clear
4:52 AM 70.0 °F - 69.1 °F 97% 29.99 in 3.0 mi South 8.1 mph - N/A   Scattered Clouds
5:52 AM 70.0 °F - 68.0 °F 93% 30.04 in 5.0 mi SW 11.5 mph - 0.00 in Rain Light Rain
6:52 AM 70.0 °F - 66.0 °F 87% 30.02 in 10.0 mi SW 10.4 mph - 0.00 in   Overcast
7:52 AM 69.1 °F - 66.0 °F 90% 30.04 in 10.0 mi SW 11.5 mph 20.7 mph 0.02 in   Overcast
8:52 AM 68.0 °F - 64.9 °F 90% 30.05 in 10.0 mi WSW 6.9 mph - 0.00 in   Mostly Cloudy
9:52 AM 69.1 °F - 64.0 °F 84% 30.04 in 10.0 mi Calm Calm - 0.00 in Rain Light Rain
10:52 AM 69.1 °F - 64.9 °F 87% 30.06 in 10.0 mi WSW 4.6 mph - 0.01 in Rain Light Rain
11:52 AM 73.9 °F - 66.0 °F 76% 29.95 in 10.0 mi SSE 11.5 mph - 0.00 in   Clear
12:52 PM 80.1 °F 82.3 °F 66.9 °F 64% 29.96 in 10.0 mi SSW 11.5 mph - N/A   Clear
1:52 PM 82.0 °F 84.5 °F 66.9 °F 60% 29.97 in 10.0 mi WSW 6.9 mph 18.4 mph N/A   Clear
2:52 PM 82.9 °F 86.5 °F 69.1 °F 63% 29.96 in 10.0 mi SSW 9.2 mph - N/A   Clear
3:52 PM 84.0 °F 89.0 °F 71.1 °F 65% 29.94 in 10.0 mi SSW 11.5 mph - N/A   Partly Cloudy
4:52 PM 82.0 °F 85.9 °F 70.0 °F 67% 29.96 in 10.0 mi SSW 11.5 mph - N/A   Partly Cloudy
5:39 PM 78.8 °F - 69.8 °F 74% 30.04 in 0.8 mi WSW 27.6 mph 47.2 mph 0.11 in   Haze
5:52 PM 70.0 °F - 64.9 °F 84% 29.96 in 1.2 mi South 10.4 mph - 0.18 in Rain Rain
6:04 PM 69.8 °F - 64.4 °F 83% 29.96 in 10.0 mi SSW 11.5 mph - 0.01 in Rain Light Rain
6:52 PM 68.0 °F - 64.9 °F 90% 29.90 in 10.0 mi SSW 13.8 mph - 0.03 in Rain Light Rain
7:52 PM 66.9 °F - 64.9 °F 93% 29.88 in 10.0 mi SSW 11.5 mph - 0.01 in   Clear
8:52 PM 66.9 °F - 64.9 °F 93% 29.90 in 10.0 mi SW 8.1 mph - N/A   Clear
9:52 PM 66.0 °F - 64.9 °F 96% 29.94 in 10.0 mi South 5.8 mph - N/A   Clear
10:52 PM 66.0 °F - 64.0 °F 93% 29.96 in 10.0 mi South 3.5 mph - N/A   Clear
11:52 PM 66.9 °F - 64.9 °F 93% 29.94 in 10.0 mi Calm Calm - N/A   Mostly Cloudy